This is the latest recevied weather packets stored in our database for station/object KI4FRU. If no packets are shown the sender has not sent any weather packets the latest 10 day(s).
| Time | Temp. | Humidity | Pressure | Rain* | Wind** | Luminosity | Snow |
|---|---|---|---|---|---|---|---|
| 1777727388 | 12.78° C | 78% | 1052.8 hPa | 0 mm | - | 56 W/m² | - |
| 1777727086 | 12.78° C | 76% | 1052.6 hPa | 0 mm | - | 48 W/m² | - |
| 1777726784 | 12.78° C | 77% | 1052.6 hPa | 0 mm | - | 44 W/m² | - |
| 1777726480 | 12.78° C | 79% | 1052.5 hPa | 0 mm | - | 50 W/m² | - |
| 1777726178 | 12.78° C | 79% | 1052.8 hPa | 0 mm | - | 28 W/m² | - |
| 1777725874 | 12.78° C | 79% | 1052.7 hPa | 0 mm | - | 25 W/m² | - |
| 1777725572 | 12.78° C | 82% | 1052.6 hPa | 0 mm | - | 34 W/m² | - |
| 1777725269 | 12.78° C | 83% | 1052.5 hPa | 0 mm | - | 34 W/m² | - |
| 1777724966 | 12.78° C | 80% | 1052.3 hPa | 0 mm | - | 36 W/m² | - |
| 1777724662 | 12.78° C | 82% | 1052.5 hPa | 0 mm | - | 39 W/m² | - |
| 1777724361 | 12.78° C | 83% | 1052.5 hPa | 0 mm | - | 28 W/m² | - |
| 1777724057 | 12.78° C | 81% | 1052.7 hPa | 0 mm | - | 21 W/m² | - |
| 1777723755 | 12.78° C | 81% | 1052.5 hPa | 0 mm | - | 23 W/m² | - |
| 1777723451 | 12.78° C | 83% | 1051.9 hPa | 0 mm | - | 30 W/m² | - |
| 1777723148 | 12.78° C | 82% | 1052 hPa | 0 mm | - | 27 W/m² | - |
| 1777722845 | 12.78° C | 83% | 1052 hPa | 0 mm | - | 20 W/m² | - |
| 1777722541 | 12.78° C | 83% | 1051.9 hPa | 0 mm | - | 23 W/m² | - |
| 1777722238 | 12.78° C | 83% | 1052.2 hPa | 0 mm | - | 16 W/m² | - |
| 1777721935 | 12.78° C | 85% | 1052.5 hPa | 0 mm | - | 14 W/m² | - |
| 1777721633 | 12.78° C | 83% | 1052.4 hPa | 0 mm | - | 17 W/m² | - |
| 1777721331 | 12.78° C | 85% | 1051.9 hPa | 0 mm | - | 13 W/m² | - |
| 1777721028 | 12.78° C | 84% | 1051.9 hPa | 0 mm | - | 9 W/m² | - |
| 1777720726 | 12.22° C | 84% | 1051.9 hPa | 0 mm | - | 13 W/m² | - |
| 1777720423 | 12.22° C | 86% | 1052 hPa | 0 mm | - | 8 W/m² | - |
| 1777720120 | 12.22° C | 88% | 1051.9 hPa | 0 mm | - | 7 W/m² | - |
* Rain latest hour (hover to see other rain measurements)
** Current wind speed in m/s (hover to see current wind gust speed)